Wetbulb
39.22 39.92 40.73 41.43 41.52 41.10 40.76 40.83 41.82 41.90 41.39 40.56 40.24 40.04 39.72 39.23 39.36 39.56 39.68 39.24 39.24 39.41 39.57 39.45 39.13 38.52 37.61 36.24 36.12 36.13 36.05 36.15 36.08 36.76 37.48 37.73 37.22 36.83 36.50 36.26 35.97 35.67 35.35 35.25 35.10 34.91 34.68 34.29 34.14 34.08 34.00 33.90 33.40 33.00 32.74 32.79 32.36 32.06 31.94 31.72 31.73 31.57 31.17 30.54 30.47 30.36 30.15 30.02 30.58
38.91 39.50 40.69 42.44 43.12 42.33 41.15 40.99 41.31 41.67 41.63 40.84 40.52 40.20 39.87 39.55 39.64 39.84 39.80 39.40 39.64 39.60 39.56 39.73 38.62 37.54 36.61 36.16 36.55 36.38 36.09 36.05 35.78 36.15 36.72 37.04 36.82 36.63 36.42 36.21 35.84 35.56 35.29 34.90 34.66 34.79 34.84 34.33 33.89 33.74 33.63 33.62 33.30 32.91 32.69 32.90 32.41 31.89 31.39 31.02 31.48 31.58 31.31 30.77 30.66 30.47 30.22 30.01 30.27
38.70 39.18 39.54 39.97 40.55 40.75 40.56 40.64 40.64 40.48 40.40 40.68 40.32 39.91 39.66 39.29 39.63 39.96 40.12 40.12 39.39 38.81 38.69 39.20 38.46 37.52 36.65 36.02 36.19 36.22 36.18 36.10 35.72 35.70 35.88 36.29 36.34 36.34 36.26 36.19 35.71 35.63 35.57 35.47 34.89 34.91 34.92 34.52 34.32 34.23 34.00 33.47 33.06 32.79 32.69 32.66 32.60 32.02 31.29 30.80 31.28 31.51 31.36 31.08 30.94 30.73 30.57 30.50 30.25
36.92 37.19 37.49 37.79 38.12 38.81 39.77 40.90 40.52 40.12 40.00 40.56 38.92 38.54 38.84 39.14 39.51 39.72 39.63 39.18 37.81 37.59 38.14 39.17 38.63 37.90 37.24 36.89 35.89 35.71 36.17 36.99 36.40 35.90 35.58 35.72 35.93 35.86 35.77 35.74 35.46 35.26 35.14 35.00 34.68 34.58 34.64 34.64 34.64 34.60 34.29 33.57 32.84 32.72 32.76 33.03 32.72 32.27 31.81 31.42 31.50 31.36 31.09 31.06 31.04 30.96 30.76 30.57 30.40
35.99 36.49 37.32 38.29 37.83 38.36 39.17 39.37 39.45 39.81 39.85 39.07 38.02 37.72 38.02 38.63 39.16 38.95 38.45 38.23 38.78 39.28 39.36 38.62 38.47 38.38 37.91 36.85 35.62 35.14 35.28 36.12 37.61 37.36 36.43 35.81 35.67 35.55 35.39 35.17 35.21 35.18 35.06 34.85 34.61 34.53 34.55 34.43 34.64 34.49 34.16 33.75 33.43 33.24 33.18 33.27 32.79 32.34 31.97 31.97 31.81 31.57 31.30 31.10 30.98 30.92 30.78 30.64 30.43
35.92 35.79 35.71 36.07 36.10 36.64 37.29 37.57 37.73 38.31 38.60 38.00 37.31 37.63 38.31 38.56 38.51 38.51 38.60 39.09 39.57 39.36 38.74 38.33 38.79 38.96 38.41 36.29 35.45 35.10 35.13 35.23 36.42 36.69 36.47 35.97 35.86 35.51 34.99 34.69 34.71 34.98 35.23 35.19 34.98 34.76 34.50 34.34 34.52 34.48 34.20 33.79 33.41 33.37 33.44 33.46 33.07 32.43 31.90 31.78 31.78 31.67 31.40 31.04 31.00 30.91 30.67 30.39 29.95
35.01 34.92 34.67 34.51 34.37 34.87 35.41 35.61 35.83 35.86 35.79 35.69 35.55 36.33 37.54 38.58 38.29 38.12 38.28 39.22 39.41 38.93 38.58 39.26 39.22 39.10 38.51 36.72 36.08 35.62 35.41 35.61 35.67 35.61 35.62 35.79 35.67 35.39 35.07 34.79 34.59 34.61 34.82 35.12 35.00 34.78 34.33 33.98 34.10 34.35 34.58 34.90 34.15 33.31 32.71 32.75 32.55 32.21 31.75 31.40 31.74 31.72 31.44 30.83 30.93 30.84 30.43 29.64 29.11
32.97 33.28 33.67 33.75 33.45 33.30 33.48 33.68 33.92 34.12 34.31 34.73 35.23 35.68 36.12 36.77 36.93 37.18 37.51 37.83 38.33 38.62 38.81 39.01 37.98 37.39 37.16 36.84 36.59 36.33 35.99 35.49 35.48 35.31 35.33 35.43 35.19 35.05 34.86 34.63 34.49 34.36 34.39 34.61 34.60 34.43 34.25 33.99 33.90 33.84 33.88 34.19 33.98 33.47 32.72 31.83 31.33 31.21 31.19 31.13 31.47 31.59 31.46 30.94 30.68 30.55 30.18 29.41 28.91
32.49 32.75 32.77 32.65 32.50 32.57 32.62 32.58 32.43 32.76 33.27 33.88 34.70 35.07 35.33 35.76 35.55 35.82 36.34 36.91 38.30 38.46 38.29 38.38 37.47 36.56 35.96 35.87 36.10 36.36 36.28 36.03 35.57 35.34 35.24 35.22 34.91 34.80 34.73 34.68 34.30 34.25 34.26 34.39 34.34 34.08 33.86 33.93 33.89 33.73 33.56 33.54 33.62 33.42 32.84 31.81 30.90 30.56 30.65 30.96 31.25 31.29 31.27 31.10 30.59 30.29 29.92 29.45 29.01
34.03 34.08 33.98 33.85 33.69 33.52 33.25 32.44 31.96 31.99 32.41 33.01 33.69 34.12 35.06 37.36 37.15 36.79 36.81 38.04 38.22 37.63 37.10 37.60 37.01 36.27 35.55 35.23 35.69 36.06 36.31 36.23 35.84 35.34 35.05 35.00 34.93 34.62 34.38 34.47 34.06 33.99 34.02 34.16 34.10 33.80 33.53 33.63 33.62 33.47 33.33 33.25 33.04 32.69 32.31 31.73 30.99 30.62 30.64 31.10 31.24 31.00 30.81 30.88 30.50 30.18 29.90 29.67 29.09
34.73 34.85 34.90 35.20 34.90 34.75 34.29 33.11 33.24 33.41 33.41 33.36 33.73 33.91 34.58 36.34 36.38 36.54 36.71 37.03 36.39 36.17 36.43 37.28 36.69 36.18 35.88 35.85 36.04 36.25 36.34 36.30 36.00 35.44 34.93 34.61 34.79 34.55 34.08 33.77 33.55 33.52 33.54 33.75 33.83 33.66 33.39 33.32 33.18 32.90 32.75 33.00 32.65 32.22 31.62 31.05 30.75 30.49 30.42 30.79 30.84 30.63 30.29 30.32 30.35 30.15 29.84 29.65 29.18
34.63 34.63 34.55 34.47 33.81 33.41 33.19 33.03 33.75 34.10 34.10 33.69 33.96 34.07 34.22 34.67 34.63 35.06 35.39 35.01 34.72 35.40 36.23 36.46 36.17 36.02 36.17 36.77 36.60 36.77 36.76 36.05 35.57 35.13 34.74 34.28 34.01 33.81 33.53 33.19 32.92 32.89 33.00 33.18 33.42 33.38 33.15 32.76 32.52 32.20 32.07 32.21 32.53 32.25 31.70 30.84 30.41 30.06 29.94 29.93 29.94 29.91 29.96 29.91 30.02 30.09 30.03 29.65 29.15
34.43 34.39 34.30 34.12 33.09 32.39 32.32 32.95 33.41 33.65 33.73 33.73 34.19 34.54 34.97 35.43 35.03 34.87 34.64 33.98 34.72 35.83 36.58 36.53 35.94 35.74 35.96 36.49 36.67 36.60 36.40 36.06 35.41 35.10 34.93 34.55 34.07 33.55 33.12 32.75 32.49 32.38 32.44 32.63 32.92 32.94 32.74 32.17 31.71 31.43 31.36 31.49 32.00 32.07 31.71 30.93 30.44 29.98 29.66 29.45 29.23 29.32 29.54 29.76 29.98 30.01 29.88 29.48 29.02
33.61 33.66 33.66 33.49 32.73 32.33 32.46 33.01 33.35 33.55 33.62 33.70 34.51 35.03 35.20 35.29 35.35 35.19 34.93 34.28 34.93 35.71 36.21 36.26 36.46 36.78 36.98 36.62 36.60 36.32 36.04 35.93 35.46 34.95 34.64 34.59 34.25 33.65 32.97 32.65 32.30 32.04 32.04 32.20 32.24 32.05 31.82 31.73 31.35 31.17 30.97 30.91 31.20 31.50 31.49 31.04 30.61 30.24 29.87 29.52 29.15 29.05 29.15 29.50 29.97 29.96 29.57 29.06 28.80
33.20 33.17 32.95 32.54 32.32 32.39 32.71 33.05 33.52 33.66 33.87 34.31 35.19 35.23 35.30 35.69 36.10 36.07 35.62 34.73 34.94 35.43 35.81 35.88 36.76 37.28 37.23 36.45 36.12 35.79 35.60 35.50 35.13 34.79 34.46 34.37 34.12 33.69 33.09 32.77 32.38 32.09 31.94 31.77 31.68 31.44 31.23 31.24 31.14 31.01 30.87 30.75 30.72 30.88 31.04 31.00 30.80 30.55 30.32 29.99 29.57 29.35 29.23 29.20 29.70 29.79 29.49 28.98 28.59
33.48 33.34 32.84 32.42 32.56 32.87 33.24 33.43 34.09 34.23 34.40 35.36 35.69 35.55 35.56 36.12 36.34 36.23 35.83 35.37 35.62 35.92 36.02 35.79 36.36 36.66 36.71 36.71 36.13 35.57 35.21 35.11 34.83 34.54 34.21 34.00 33.83 33.53 33.15 32.67 32.58 32.29 32.02 31.52 31.25 31.08 31.06 31.09 31.17 31.05 30.88 30.71 30.60 30.56 30.60 30.73 30.77 30.69 30.56 30.44 30.18 29.89 29.72 29.56 29.56 29.47 29.35 29.18 28.85
33.93 33.62 33.25 33.05 33.12 33.22 33.43 33.69 34.26 34.67 35.02 35.66 35.62 35.72 36.02 36.42 36.48 36.69 36.93 37.18 37.03 36.78 36.42 36.04 36.44 36.55 36.51 36.84 36.65 35.90 35.21 35.14 34.90 34.66 34.36 34.07 33.65 33.22 32.95 32.70 32.77 32.63 32.26 31.72 31.29 30.99 30.79 30.78 30.93 30.92 30.78 30.61 30.49 30.43 30.40 30.37 30.55 30.63 30.60 30.60 30.51 30.29 30.17 30.43 30.12 29.64 29.27 29.18 29.16
34.32 34.03 33.66 33.57 33.35 33.21 33.21 33.56 34.27 34.68 35.03 35.30 35.65 35.98 36.31 36.52 36.47 36.80 37.28 37.49 36.99 36.44 36.02 35.96 36.18 36.24 36.02 35.72 35.92 35.95 35.73 35.47 35.14 34.94 34.76 34.38 33.85 33.35 33.00 32.74 32.89 32.83 32.53 32.07 31.58 31.21 30.93 30.65 30.50 30.48 30.52 30.48 30.46 30.40 30.37 30.25 30.26 30.43 30.58 30.79 30.75 30.56 30.43 30.61 30.44 30.00 29.49 28.98 29.34
34.67 34.38 33.88 33.52 33.27 33.18 33.54 34.37 34.81 35.03 35.27 35.49 35.89 36.13 36.27 36.30 36.06 36.17 36.50 36.55 36.67 36.26 35.83 35.77 35.90 35.91 35.73 35.24 35.25 35.79 36.18 35.77 35.08 34.74 34.57 34.32 33.85 33.52 33.17 32.88 32.86 32.80 32.51 32.14 31.83 31.50 31.24 30.93 30.52 30.21 30.11 30.18 30.23 30.30 30.30 30.18 30.09 30.21 30.52 30.89 30.83 30.65 30.43 30.39 30.33 30.21 29.90 29.31 29.41
34.43 34.16 33.88 33.66 33.47 33.45 33.81 34.51 34.75 34.93 35.21 35.81 35.85 35.95 36.04 36.04 35.89 35.80 35.81 36.07 36.51 36.19 35.60 35.19 35.40 35.54 35.46 35.27 34.90 34.97 35.34 35.83 35.08 34.55 34.24 34.06 33.66 33.39 33.12 32.95 32.91 32.70 32.46 31.96 31.67 31.34 31.07 30.95 30.61 30.26 29.88 29.80 29.87 29.83 29.87 29.88 29.77 29.84 30.12 30.68 30.79 30.70 30.47 30.40 30.39 30.27 30.08 29.69 29.27
34.24 34.21 34.03 33.94 33.63 33.62 33.80 34.24 34.40 34.60 34.99 35.53 35.63 35.74 35.93 35.94 35.80 35.59 35.56 35.93 35.94 35.58 35.07 34.69 34.78 34.83 34.92 34.95 34.79 34.61 34.92 35.95 35.27 34.65 34.20 33.96 33.59 33.33 33.24 33.10 33.00 32.83 32.53 32.02 31.54 31.08 30.74 30.66 30.53 30.28 29.97 29.73 29.62 29.50 29.51 29.63 29.55 29.43 29.50 30.08 30.33 30.50 30.47 30.46 30.34 30.25 30.09 29.83 29.43
34.87 34.49 33.98 33.66 33.40 33.53 33.97 34.43 34.72 35.07 35.42 35.78 35.94 35.92 35.87 35.79 35.76 35.69 35.61 35.63 35.26 34.90 34.67 34.62 34.57 34.55 34.57 34.69 34.68 34.71 34.90 35.77 35.22 34.89 34.49 34.19 33.85 33.67 33.50 33.38 32.88 32.61 32.28 31.84 31.58 31.11 30.74 30.43 30.29 30.07 29.86 29.69 29.36 29.30 29.38 29.56 29.37 29.25 29.10 29.26 29.52 29.70 29.94 29.90 30.03 29.97 29.83 29.67 29.39
35.25 34.35 33.48 33.13 33.04 34.03 35.09 35.47 35.48 35.50 35.73 36.07 36.10 36.07 35.94 35.77 35.79 35.67 35.45 35.07 35.14 34.93 34.80 34.82 34.90 34.73 34.51 34.44 34.35 34.24 34.36 34.56 34.55 34.58 34.49 34.21 33.79 33.44 33.21 33.03 32.48 32.16 31.92 31.95 31.65 31.13 30.60 30.17 29.96 29.78 29.60 29.49 29.09 29.03 29.15 29.23 29.30 29.16 28.86 28.75 28.81 28.92 29.11 29.21 29.42 29.38 29.23 29.14 29.09
34.60 33.84 33.70 34.26 33.73 33.95 34.49 34.90 35.32 35.70 35.98 36.19 36.33 36.30 36.08 35.95 35.82 35.61 35.30 34.86 34.78 34.57 34.50 34.89 35.10 34.89 34.40 34.02 33.63 33.43 33.36 33.49 33.64 33.83 33.93 33.93 33.75 33.45 33.02 32.64 32.23 31.95 31.84 32.09 32.57 32.63 32.23 31.52 30.29 29.67 29.40 29.39 29.18 29.04 28.97 28.87 28.85 28.81 28.67 28.44 28.33 28.37 28.46 28.70 29.07 29.09 29.02 28.86 28.83
33.88 33.31 33.37 33.79 33.98 34.52 35.07 35.53 35.89 36.17 36.51 36.64 36.60 36.35 36.08 35.93 35.75 35.49 35.15 34.80 34.68 34.50 34.37 34.20 34.24 34.23 34.12 34.03 33.56 33.35 33.12 32.98 33.12 33.31 33.46 33.57 33.58 33.43 33.09 32.80 32.41 32.19 32.26 32.91 35.49 37.08 37.53 36.73 34.53 32.31 30.53 29.56 29.28 29.07 28.96 28.64 28.49 28.44 28.43 28.37 28.31 28.21 28.20 28.36 28.72 28.97 29.02 28.99 28.88
33.54 33.41 33.84 34.41 34.93 35.37 35.81 36.22 36.53 36.70 36.74 36.72 36.55 36.25 36.07 35.83 35.74 35.38 34.93 34.68 34.65 34.57 34.43 34.15 34.06 34.71 35.24 34.97 34.34 33.83 33.61 33.60 33.57 33.42 33.35 33.46 33.36 33.30 33.14 33.20 33.05 32.69 32.78 34.28 36.95 38.71 39.65 40.21 39.60 37.52 34.59 31.27 29.88 29.11 28.74 28.69 28.44 28.32 28.26 28.21 28.37 28.24 28.12 28.10 28.45 28.69 28.87 29.03 29.09
33.92 34.36 35.21 35.83 36.04 36.34 36.73 37.04 37.16 37.02 36.83 36.67 36.37 36.19 36.06 35.92 35.92 35.55 34.97 34.76 34.73 34.59 34.40 34.32 34.05 35.19 36.23 35.51 34.36 33.74 33.64 34.01 33.89 33.57 33.34 33.28 33.17 33.08 33.06 33.36 33.33 33.09 33.59 35.93 38.20 39.54 40.37 40.98 41.37 40.77 38.92 35.25 32.30 30.27 29.18 28.73 28.42 28.18 28.12 28.17 28.30 28.28 28.16 28.04 28.29 28.62 28.83 28.89 28.95
34.72 35.51 36.18 36.64 36.87 37.25 37.55 37.75 37.56 37.27 36.96 36.73 36.43 36.33 36.18 35.99 35.62 35.30 35.08 34.97 34.87 34.68 34.67 34.77 35.01 35.32 35.51 35.11 34.30 33.80 33.64 33.79 33.90 33.83 33.65 33.45 33.26 33.11 33.05 33.39 33.38 33.95 35.31 37.88 39.40 40.32 40.93 41.41 41.75 41.80 41.12 39.29 36.10 33.20 30.99 29.54 29.00 28.62 28.51 28.46 28.36 28.24 28.13 28.13 28.39 28.55 28.58 28.62 28.63
35.32 36.18 36.75 37.16 37.50 37.79 38.00 38.02 37.70 37.47 37.23 36.99 36.68 36.40 36.11 35.87 35.63 35.35 35.18 35.01 34.73 34.73 35.10 35.71 36.42 36.02 35.38 34.93 34.82 34.53 34.13 33.81 33.91 33.91 33.79 33.42 33.14 33.05 33.03 33.22 33.31 34.62 36.89 39.60 40.46 41.02 41.37 41.75 41.92 42.05 41.93 41.34 39.10 36.89 34.72 32.54 31.06 30.12 29.68 29.40 28.99 28.58 28.28 28.27 28.49 28.56 28.56 28.63 28.63
36.24 37.00 37.48 37.76 37.87 37.98 37.93 37.86 37.64 37.49 37.34 37.30 36.85 36.46 36.08 35.87 35.59 35.45 35.32 35.11 34.99 35.28 35.75 36.19 36.13 35.73 35.28 35.03 34.99 34.89 34.82 34.70 34.52 34.20 33.73 33.23 33.11 33.19 33.50 34.14 33.86 34.92 36.88 39.73 40.68 41.28 41.67 41.92 42.10 42.22 42.23 42.01 40.45 38.60 36.78 35.29 33.36 31.96 30.94 30.31 29.82 29.18 28.60 28.38 28.48 28.53 28.65 28.78 28.76
36.96 37.45 37.74 37.77 37.66 37.57 37.43 37.50 37.36 37.32 37.15 37.14 36.72 36.29 35.99 35.79 35.68 35.63 35.55 35.46 35.60 36.32 36.67 35.93 35.21 34.83 34.66 34.83 34.69 34.63 34.61 34.66 34.52 34.27 33.86 33.38 34.15 34.52 34.46 34.22 33.88 34.93 36.99 39.72 40.72 41.28 41.75 42.01 42.18 42.27 42.31 42.31 41.06 39.24 37.60 36.85 35.47 33.92 32.41 31.15 30.30 29.60 29.03 28.67 28.56 28.58 28.63 28.62 28.63
36.89 37.11 37.19 37.06 36.96 36.96 37.05 37.08 37.00 36.96 36.85 36.57 36.37 36.12 35.96 35.80 35.83 35.91 35.95 35.86 35.86 35.92 35.67 34.92 34.44 34.37 34.37 34.43 34.27 34.28 34.37 34.55 34.62 34.70 34.58 34.41 34.23 34.11 34.18 34.44 34.10 35.12 37.13 39.77 40.76 41.36 41.75 42.05 42.18 42.26 42.30 42.30 41.29 38.81 36.65 36.84 36.52 35.51 34.21 32.61 31.16 30.18 29.61 29.39 29.10 28.84 28.75 28.65 28.62
36.79 36.75 36.65 36.42 36.47 36.57 36.73 36.80 36.80 36.75 36.57 36.37 36.16 36.00 35.84 35.78 35.80 35.87 35.82 35.72 35.47 34.98 34.46 34.22 34.23 34.24 34.34 34.47 34.48 34.65 34.85 35.01 35.30 35.77 36.22 36.33 35.64 35.16 34.97 35.28 34.87 36.16 38.24 40.33 41.11 41.54 41.79 42.01 42.05 42.05 42.13 42.26 41.09 39.09 37.42 37.13 36.87 36.38 35.62 34.31 32.72 31.46 30.50 29.91 29.59 29.32 29.12 28.96 28.84
36.18 36.20 36.12 36.07 36.17 36.34 36.55 36.70 36.70 36.61 36.46 36.29 36.06 35.94 35.78 35.68 35.56 35.46 35.48 35.65 35.51 35.18 34.76 34.36 34.35 34.50 34.62 34.68 34.85 34.97 35.40 36.37 36.36 36.07 35.76 35.72 35.51 35.38 35.50 35.64 35.67 37.42 39.61 41.11 41.67 41.92 42.09 42.14 42.18 42.13 42.08 42.08 40.42 38.98 37.91 37.36 36.93 36.55 36.10 35.36 34.21 32.91 31.66 30.66 30.19 29.89 29.62 29.39 29.18
35.72 35.75 35.76 35.89 36.08 36.34 36.46 36.56 36.61 36.51 36.28 36.03 35.97 35.90 35.78 35.55 35.26 35.08 35.18 35.84 35.92 35.53 35.10 34.94 34.81 34.83 34.94 35.08 34.98 35.13 35.47 35.94 35.83 35.79 35.77 35.85 35.88 35.99 36.05 36.04 36.04 37.86 40.13 41.46 41.84 42.14 42.27 42.35 42.35 42.30 42.03 41.59 39.72 38.41 37.52 36.90 36.60 36.25 35.95 35.52 34.93 33.99 32.96 31.79 31.01 30.49 30.09 29.70 29.33
35.68 35.64 35.68 35.78 36.05 36.23 36.39 36.53 36.58 36.40 36.17 35.85 35.75 35.64 35.56 35.33 35.06 34.76 34.85 35.75 35.67 35.13 34.58 34.65 34.37 34.23 34.35 34.75 34.99 35.51 35.90 35.76 35.73 35.85 36.12 36.45 36.57 36.51 36.36 36.18 36.06 37.62 39.73 41.28 41.75 42.01 42.18 42.26 42.34 42.25 41.81 40.68 39.08 37.95 37.17 36.62 36.21 35.78 35.50 35.23 34.92 34.51 33.87 32.96 32.02 31.23 30.57 30.02 29.55
35.85 35.86 35.90 35.95 36.17 36.37 36.52 36.62 36.45 36.15 35.87 35.69 35.45 35.21 34.97 34.75 34.56 34.51 34.66 34.87 34.62 34.25 34.07 34.28 34.37 34.35 34.43 34.72 35.39 35.89 36.20 36.25 36.24 36.33 36.60 37.06 37.23 37.11 36.83 36.64 36.15 37.14 38.82 40.72 41.36 41.75 41.96 42.08 42.17 41.99 41.36 39.76 38.37 37.43 36.79 36.19 35.74 35.35 34.99 34.69 34.58 34.47 34.32 33.95 33.07 32.14 31.22 30.43 30.00
36.42 36.36 36.33 36.23 36.28 36.38 36.44 36.32 35.98 35.63 35.36 35.27 35.03 34.76 34.45 34.14 34.14 34.30 34.53 35.01 34.46 34.24 34.26 34.53 34.74 35.02 35.29 35.57 36.17 36.30 36.34 36.31 36.67 36.81 36.88 37.03 37.19 37.25 37.10 36.88 36.46 36.80 38.05 39.95 40.93 41.44 41.61 41.78 41.86 41.64 40.92 39.13 38.06 37.16 36.51 35.78 35.23 34.81 34.50 34.24 34.15 34.14 34.21 34.32 33.87 33.09 32.08 31.14 31.89
36.73 36.60 36.41 36.11 35.93 35.85 35.73 35.52 35.25 35.04 34.87 34.83 34.78 34.62 34.51 34.30 34.39 34.65 34.99 35.18 34.79 34.65 34.79 35.21 35.49 35.90 36.32 36.88 37.23 37.15 36.80 36.54 36.85 37.17 37.24 37.04 37.32 37.81 38.08 37.66 37.08 37.28 38.14 39.86 40.80 41.27 41.48 41.69 41.73 41.64 41.06 39.50 38.20 37.16 36.42 35.59 34.84 34.25 33.90 33.69 33.64 33.59 33.71 33.98 33.94 33.47 32.68 31.70 33.79
36.65 36.45 36.05 35.61 35.43 35.18 35.01 34.76 34.65 34.66 34.75 34.63 34.41 34.34 34.32 34.38 34.96 35.47 35.80 35.80 35.34 35.39 35.73 36.15 36.37 36.78 37.35 38.20 38.06 37.61 37.22 36.93 36.83 37.10 37.38 37.57 37.93 38.79 39.35 38.56 37.74 37.60 38.22 39.68 40.58 41.05 41.26 41.47 41.56 41.59 41.06 39.37 38.07 37.08 36.33 35.42 34.54 33.86 33.33 33.13 33.00 32.92 33.00 33.23 33.42 33.36 32.93 31.97 33.56
36.19 35.83 35.42 35.11 34.83 34.54 34.29 34.10 34.12 34.34 34.40 34.31 34.01 34.21 34.76 35.27 35.45 35.45 35.45 35.61 35.71 36.17 36.68 37.14 37.19 37.35 37.69 38.46 38.42 37.97 37.42 37.08 37.16 37.33 37.61 38.05 38.18 38.83 39.18 38.47 37.69 37.21 37.36 38.43 39.72 40.49 40.92 41.14 41.26 41.34 40.89 39.42 38.03 36.99 36.06 35.11 34.03 33.30 32.77 32.61 32.55 32.43 32.30 32.41 32.64 32.82 32.75 32.27 32.18
MSLP
1016.45 1016.45 1016.41 1016.41 1016.37 1016.41 1016.41 1016.33 1016.25 1016.21 1016.21 1016.25 1016.21 1016.17 1016.17 1016.21 1016.21 1016.09 1016.01 1016.01 1015.97 1015.85 1015.73 1015.69 1015.61 1015.57 1015.53 1015.57 1015.65 1015.69 1015.69 1015.69 1015.73 1015.73 1015.65 1015.65 1015.57 1015.57 1015.57 1015.61 1015.65 1015.73 1015.81 1015.85 1015.89 1016.05 1016.17 1016.29 1016.45 1016.57 1016.57 1016.57 1016.65 1016.69 1016.73 1016.73 1016.81 1016.89 1016.93 1016.97 1016.97 1017.01 1017.09 1017.17 1017.21 1017.25 1017.33 1017.45 1017.49
1016.37 1016.29 1016.21 1016.17 1016.17 1016.17 1016.17 1016.17 1016.13 1016.05 1016.01 1015.97 1015.93 1015.89 1015.89 1015.97 1015.97 1015.85 1015.77 1015.73 1015.65 1015.57 1015.53 1015.45 1015.37 1015.37 1015.33 1015.33 1015.37 1015.45 1015.45 1015.45 1015.45 1015.45 1015.45 1015.37 1015.29 1015.25 1015.29 1015.29 1015.37 1015.41 1015.45 1015.49 1015.61 1015.73 1015.85 1015.97 1016.09 1016.17 1016.21 1016.21 1016.29 1016.29 1016.29 1016.29 1016.45 1016.57 1016.57 1016.57 1016.57 1016.65 1016.73 1016.81 1016.73 1016.81 1016.93 1017.09 1017.17
1016.21 1016.17 1016.13 1016.13 1016.09 1016.09 1016.09 1016.05 1016.01 1015.93 1015.85 1015.77 1015.73 1015.69 1015.73 1015.73 1015.73 1015.65 1015.57 1015.45 1015.41 1015.37 1015.37 1015.29 1015.17 1015.13 1015.13 1015.13 1015.13 1015.21 1015.25 1015.21 1015.21 1015.21 1015.17 1015.13 1015.01 1015.01 1015.01 1015.01 1015.05 1015.09 1015.13 1015.17 1015.29 1015.33 1015.41 1015.53 1015.73 1015.81 1015.81 1015.81 1015.85 1015.85 1015.81 1015.81 1016.01 1016.13 1016.17 1016.17 1016.25 1016.33 1016.41 1016.41 1016.33 1016.45 1016.65 1016.77 1016.85
1016.13 1016.09 1016.09 1016.05 1016.01 1016.01 1015.93 1015.85 1015.77 1015.73 1015.65 1015.57 1015.53 1015.53 1015.53 1015.49 1015.49 1015.41 1015.29 1015.25 1015.25 1015.25 1015.17 1015.05 1014.93 1014.85 1014.89 1014.93 1015.01 1015.01 1014.97 1014.93 1014.93 1014.97 1014.93 1014.85 1014.77 1014.73 1014.73 1014.73 1014.81 1014.81 1014.85 1014.85 1014.93 1014.97 1015.05 1015.17 1015.29 1015.37 1015.37 1015.37 1015.45 1015.41 1015.33 1015.37 1015.57 1015.65 1015.69 1015.73 1015.85 1016.01 1016.01 1016.01 1016.01 1016.13 1016.29 1016.33 1016.41
1016.05 1016.01 1015.93 1015.85 1015.85 1015.77 1015.69 1015.61 1015.57 1015.53 1015.41 1015.29 1015.33 1015.37 1015.33 1015.29 1015.25 1015.25 1015.21 1015.13 1015.05 1014.93 1014.81 1014.73 1014.73 1014.69 1014.65 1014.73 1014.77 1014.77 1014.77 1014.73 1014.69 1014.69 1014.65 1014.57 1014.49 1014.45 1014.49 1014.53 1014.49 1014.49 1014.53 1014.57 1014.61 1014.61 1014.73 1014.85 1015.01 1015.01 1014.97 1014.97 1014.97 1014.93 1014.85 1014.89 1015.09 1015.21 1015.25 1015.29 1015.45 1015.53 1015.61 1015.69 1015.73 1015.85 1015.93 1016.01 1016.01
1015.89 1015.81 1015.73 1015.69 1015.61 1015.57 1015.45 1015.41 1015.37 1015.29 1015.21 1015.17 1015.21 1015.21 1015.13 1015.05 1015.01 1015.01 1015.01 1014.93 1014.73 1014.57 1014.45 1014.49 1014.49 1014.45 1014.45 1014.49 1014.53 1014.57 1014.53 1014.49 1014.45 1014.45 1014.37 1014.29 1014.21 1014.21 1014.21 1014.21 1014.17 1014.17 1014.17 1014.25 1014.29 1014.33 1014.45 1014.61 1014.69 1014.65 1014.61 1014.61 1014.57 1014.49 1014.45 1014.57 1014.73 1014.81 1014.85 1014.93 1014.97 1015.05 1015.17 1015.29 1015.41 1015.57 1015.73 1015.73 1015.73
1015.73 1015.65 1015.57 1015.53 1015.45 1015.41 1015.33 1015.25 1015.17 1015.13 1015.13 1015.13 1015.13 1015.05 1014.97 1014.81 1014.77 1014.73 1014.69 1014.57 1014.45 1014.33 1014.29 1014.21 1014.21 1014.21 1014.21 1014.25 1014.29 1014.29 1014.29 1014.21 1014.17 1014.17 1014.13 1014.01 1013.93 1013.89 1013.89 1013.89 1013.89 1013.85 1013.85 1013.85 1013.93 1014.01 1014.17 1014.29 1014.41 1014.37 1014.29 1014.25 1014.21 1014.13 1014.13 1014.29 1014.37 1014.45 1014.49 1014.49 1014.53 1014.61 1014.73 1014.85 1015.01 1015.21 1015.41 1015.45 1015.53
1015.69 1015.57 1015.45 1015.33 1015.29 1015.21 1015.17 1015.09 1015.05 1015.05 1015.01 1014.97 1014.93 1014.85 1014.73 1014.61 1014.57 1014.49 1014.41 1014.33 1014.29 1014.17 1014.01 1013.97 1013.97 1013.93 1013.93 1013.97 1014.01 1013.97 1013.93 1013.93 1013.85 1013.85 1013.81 1013.77 1013.73 1013.65 1013.61 1013.57 1013.61 1013.57 1013.57 1013.57 1013.65 1013.73 1013.85 1014.01 1014.05 1014.01 1013.93 1013.89 1013.81 1013.69 1013.73 1013.89 1014.01 1014.09 1014.13 1014.13 1014.13 1014.25 1014.41 1014.53 1014.65 1014.85 1015.01 1015.13 1015.21
1015.57 1015.45 1015.33 1015.21 1015.13 1015.09 1015.05 1015.01 1014.97 1014.97 1014.93 1014.85 1014.73 1014.61 1014.53 1014.45 1014.41 1014.33 1014.29 1014.21 1014.01 1013.89 1013.81 1013.73 1013.65 1013.65 1013.69 1013.73 1013.69 1013.61 1013.57 1013.57 1013.53 1013.49 1013.45 1013.45 1013.45 1013.41 1013.29 1013.33 1013.29 1013.25 1013.21 1013.25 1013.33 1013.41 1013.49 1013.61 1013.65 1013.57 1013.49 1013.45 1013.33 1013.25 1013.25 1013.45 1013.69 1013.73 1013.73 1013.73 1013.77 1013.85 1013.97 1014.09 1014.29 1014.45 1014.57 1014.73 1014.85
1015.45 1015.29 1015.21 1015.13 1015.01 1014.97 1014.93 1014.85 1014.85 1014.85 1014.81 1014.73 1014.57 1014.45 1014.37 1014.29 1014.21 1014.17 1014.05 1013.93 1013.77 1013.73 1013.65 1013.57 1013.45 1013.45 1013.45 1013.45 1013.41 1013.33 1013.29 1013.25 1013.25 1013.21 1013.17 1013.17 1013.13 1013.09 1013.01 1013.01 1012.97 1012.93 1012.89 1012.89 1013.01 1013.09 1013.21 1013.29 1013.29 1013.13 1013.05 1013.01 1012.93 1012.89 1012.93 1013.09 1013.29 1013.29 1013.29 1013.33 1013.45 1013.53 1013.61 1013.69 1013.85 1014.01 1014.17 1014.25 1014.37
1015.33 1015.17 1015.09 1015.01 1014.93 1014.85 1014.85 1014.85 1014.77 1014.73 1014.73 1014.61 1014.45 1014.33 1014.25 1014.17 1014.09 1013.97 1013.85 1013.77 1013.73 1013.65 1013.49 1013.29 1013.29 1013.29 1013.25 1013.21 1013.13 1013.01 1012.97 1012.97 1012.93 1012.93 1012.93 1012.85 1012.81 1012.77 1012.73 1012.65 1012.61 1012.57 1012.57 1012.57 1012.65 1012.81 1012.89 1012.93 1012.85 1012.73 1012.65 1012.57 1012.57 1012.61 1012.73 1012.81 1012.89 1012.93 1012.97 1012.97 1013.05 1013.17 1013.25 1013.25 1013.41 1013.57 1013.69 1013.77 1013.89
1015.25 1015.09 1015.01 1014.93 1014.89 1014.85 1014.85 1014.85 1014.77 1014.69 1014.61 1014.53 1014.41 1014.29 1014.17 1014.01 1013.93 1013.85 1013.77 1013.73 1013.73 1013.53 1013.29 1013.13 1013.09 1013.05 1013.01 1012.89 1012.81 1012.73 1012.65 1012.65 1012.65 1012.65 1012.61 1012.57 1012.53 1012.45 1012.41 1012.41 1012.37 1012.33 1012.29 1012.29 1012.37 1012.49 1012.57 1012.53 1012.45 1012.33 1012.29 1012.25 1012.29 1012.37 1012.41 1012.45 1012.57 1012.61 1012.61 1012.61 1012.73 1012.85 1012.85 1012.85 1012.93 1013.09 1013.25 1013.37 1013.45
1015.13 1015.05 1014.97 1014.85 1014.85 1014.85 1014.85 1014.85 1014.73 1014.65 1014.57 1014.45 1014.29 1014.17 1014.05 1013.89 1013.77 1013.73 1013.73 1013.65 1013.53 1013.29 1013.09 1012.93 1012.85 1012.85 1012.81 1012.65 1012.53 1012.45 1012.41 1012.37 1012.37 1012.37 1012.33 1012.29 1012.21 1012.17 1012.17 1012.13 1012.09 1012.05 1012.01 1012.01 1012.09 1012.17 1012.17 1012.13 1012.05 1012.01 1011.97 1011.89 1011.89 1011.97 1012.01 1012.09 1012.17 1012.25 1012.25 1012.29 1012.37 1012.45 1012.41 1012.41 1012.49 1012.69 1012.85 1012.97 1013.05
1015.09 1015.01 1014.89 1014.85 1014.85 1014.85 1014.85 1014.77 1014.69 1014.57 1014.45 1014.37 1014.17 1014.05 1013.89 1013.73 1013.61 1013.57 1013.53 1013.45 1013.29 1013.09 1012.89 1012.73 1012.65 1012.57 1012.45 1012.33 1012.25 1012.17 1012.13 1012.05 1012.05 1012.05 1012.01 1011.93 1011.89 1011.85 1011.85 1011.81 1011.77 1011.77 1011.77 1011.77 1011.81 1011.85 1011.85 1011.73 1011.69 1011.65 1011.61 1011.57 1011.53 1011.57 1011.61 1011.73 1011.81 1011.85 1011.85 1011.89 1011.97 1011.97 1011.97 1012.01 1012.13 1012.29 1012.45 1012.57 1012.57
1015.01 1014.93 1014.85 1014.85 1014.81 1014.77 1014.73 1014.65 1014.57 1014.45 1014.33 1014.21 1014.01 1013.85 1013.73 1013.57 1013.45 1013.33 1013.29 1013.17 1013.05 1012.85 1012.73 1012.61 1012.45 1012.25 1012.09 1012.05 1012.01 1011.89 1011.85 1011.85 1011.81 1011.77 1011.73 1011.65 1011.57 1011.57 1011.53 1011.49 1011.45 1011.45 1011.49 1011.45 1011.53 1011.53 1011.49 1011.45 1011.37 1011.29 1011.29 1011.25 1011.21 1011.21 1011.29 1011.33 1011.37 1011.41 1011.41 1011.45 1011.49 1011.49 1011.53 1011.61 1011.77 1011.97 1012.09 1012.13 1012.17
1014.93 1014.85 1014.77 1014.77 1014.73 1014.65 1014.57 1014.45 1014.37 1014.29 1014.17 1014.01 1013.81 1013.69 1013.57 1013.45 1013.25 1013.13 1013.05 1012.97 1012.81 1012.65 1012.53 1012.41 1012.17 1012.01 1011.85 1011.77 1011.73 1011.69 1011.61 1011.57 1011.57 1011.53 1011.45 1011.37 1011.29 1011.21 1011.17 1011.13 1011.13 1011.13 1011.13 1011.17 1011.17 1011.17 1011.13 1011.09 1011.01 1011.01 1010.97 1010.89 1010.89 1010.89 1010.89 1010.97 1010.97 1010.97 1010.97 1011.01 1011.01 1011.05 1011.13 1011.21 1011.41 1011.57 1011.65 1011.73 1011.77
1014.81 1014.73 1014.65 1014.65 1014.57 1014.45 1014.37 1014.25 1014.17 1014.05 1013.93 1013.77 1013.61 1013.49 1013.37 1013.21 1013.05 1012.93 1012.81 1012.69 1012.53 1012.41 1012.29 1012.09 1011.93 1011.81 1011.65 1011.53 1011.41 1011.41 1011.41 1011.33 1011.29 1011.21 1011.13 1011.05 1010.97 1010.89 1010.85 1010.81 1010.81 1010.77 1010.77 1010.85 1010.85 1010.81 1010.77 1010.73 1010.69 1010.69 1010.65 1010.57 1010.57 1010.57 1010.57 1010.57 1010.61 1010.61 1010.57 1010.57 1010.61 1010.65 1010.69 1010.77 1010.93 1011.09 1011.21 1011.29 1011.33
1014.61 1014.53 1014.49 1014.45 1014.37 1014.29 1014.17 1014.01 1013.93 1013.81 1013.69 1013.53 1013.41 1013.25 1013.09 1012.97 1012.85 1012.69 1012.53 1012.41 1012.29 1012.21 1012.05 1011.85 1011.69 1011.57 1011.45 1011.33 1011.21 1011.13 1011.13 1011.01 1010.93 1010.85 1010.73 1010.69 1010.57 1010.53 1010.53 1010.45 1010.45 1010.45 1010.45 1010.45 1010.45 1010.45 1010.37 1010.37 1010.37 1010.37 1010.33 1010.29 1010.29 1010.25 1010.25 1010.29 1010.29 1010.25 1010.21 1010.25 1010.21 1010.25 1010.29 1010.37 1010.45 1010.61 1010.77 1010.85 1010.85
1014.45 1014.29 1014.29 1014.25 1014.13 1014.01 1013.89 1013.77 1013.65 1013.53 1013.41 1013.29 1013.13 1012.97 1012.81 1012.69 1012.57 1012.45 1012.29 1012.13 1012.01 1011.89 1011.81 1011.61 1011.45 1011.29 1011.17 1011.13 1011.01 1010.85 1010.77 1010.73 1010.57 1010.45 1010.33 1010.29 1010.25 1010.21 1010.17 1010.13 1010.09 1010.09 1010.09 1010.09 1010.05 1010.01 1010.01 1009.97 1010.01 1010.01 1010.01 1010.01 1009.97 1009.89 1009.89 1009.93 1009.89 1009.85 1009.85 1009.85 1009.85 1009.85 1009.89 1009.93 1010.01 1010.13 1010.29 1010.37 1010.41
1014.21 1014.13 1014.01 1013.93 1013.85 1013.73 1013.65 1013.49 1013.37 1013.25 1013.13 1012.97 1012.85 1012.73 1012.57 1012.41 1012.29 1012.17 1012.01 1011.81 1011.61 1011.57 1011.49 1011.41 1011.25 1011.05 1010.89 1010.81 1010.73 1010.57 1010.45 1010.37 1010.29 1010.17 1010.01 1009.97 1009.93 1009.85 1009.85 1009.81 1009.73 1009.73 1009.73 1009.73 1009.73 1009.65 1009.61 1009.61 1009.61 1009.61 1009.65 1009.65 1009.61 1009.57 1009.57 1009.57 1009.53 1009.49 1009.45 1009.49 1009.45 1009.45 1009.45 1009.53 1009.61 1009.69 1009.77 1009.85 1009.93
1014.01 1013.85 1013.73 1013.61 1013.57 1013.45 1013.33 1013.17 1013.05 1012.93 1012.85 1012.73 1012.57 1012.45 1012.29 1012.13 1012.01 1011.85 1011.73 1011.49 1011.33 1011.29 1011.25 1011.13 1011.01 1010.81 1010.65 1010.53 1010.45 1010.29 1010.17 1010.01 1009.97 1009.85 1009.73 1009.65 1009.61 1009.57 1009.45 1009.45 1009.41 1009.37 1009.37 1009.41 1009.37 1009.33 1009.29 1009.29 1009.25 1009.25 1009.25 1009.29 1009.25 1009.21 1009.17 1009.17 1009.13 1009.13 1009.13 1009.13 1009.05 1009.05 1009.05 1009.13 1009.21 1009.29 1009.37 1009.45 1009.49
1013.65 1013.49 1013.41 1013.29 1013.25 1013.13 1013.05 1012.93 1012.77 1012.69 1012.57 1012.45 1012.29 1012.13 1011.97 1011.85 1011.69 1011.49 1011.29 1011.17 1011.13 1011.05 1010.93 1010.77 1010.65 1010.53 1010.37 1010.25 1010.17 1010.01 1009.85 1009.69 1009.65 1009.53 1009.45 1009.37 1009.29 1009.17 1009.13 1009.13 1009.13 1009.09 1009.05 1009.05 1009.01 1008.97 1008.93 1008.85 1008.85 1008.85 1008.85 1008.85 1008.85 1008.85 1008.81 1008.81 1008.77 1008.77 1008.73 1008.73 1008.73 1008.73 1008.73 1008.81 1008.85 1008.93 1008.97 1009.01 1009.09
1013.33 1013.25 1013.17 1013.13 1013.05 1012.93 1012.81 1012.73 1012.57 1012.45 1012.33 1012.17 1012.01 1011.85 1011.69 1011.49 1011.33 1011.13 1011.01 1010.93 1010.85 1010.73 1010.57 1010.45 1010.29 1010.17 1010.05 1009.93 1009.85 1009.73 1009.57 1009.45 1009.33 1009.21 1009.13 1009.05 1008.97 1008.85 1008.85 1008.81 1008.85 1008.81 1008.73 1008.69 1008.65 1008.61 1008.57 1008.57 1008.53 1008.49 1008.53 1008.53 1008.49 1008.45 1008.45 1008.45 1008.45 1008.45 1008.41 1008.37 1008.41 1008.41 1008.45 1008.45 1008.49 1008.57 1008.57 1008.61 1008.73
1013.17 1013.13 1013.01 1012.97 1012.89 1012.77 1012.65 1012.53 1012.41 1012.25 1012.05 1011.89 1011.73 1011.53 1011.37 1011.21 1011.01 1010.89 1010.77 1010.69 1010.57 1010.45 1010.29 1010.13 1009.93 1009.85 1009.73 1009.69 1009.57 1009.49 1009.41 1009.29 1009.09 1008.93 1008.81 1008.73 1008.65 1008.57 1008.57 1008.53 1008.53 1008.45 1008.37 1008.29 1008.29 1008.25 1008.25 1008.21 1008.17 1008.17 1008.17 1008.17 1008.17 1008.13 1008.13 1008.13 1008.13 1008.13 1008.13 1008.09 1008.09 1008.09 1008.09 1008.13 1008.17 1008.21 1008.25 1008.25 1008.29
1013.13 1013.05 1012.97 1012.85 1012.73 1012.61 1012.45 1012.33 1012.21 1012.01 1011.85 1011.57 1011.45 1011.29 1011.13 1010.97 1010.85 1010.73 1010.57 1010.45 1010.29 1010.13 1009.97 1009.85 1009.69 1009.57 1009.49 1009.41 1009.33 1009.25 1009.13 1009.01 1008.85 1008.69 1008.49 1008.37 1008.29 1008.25 1008.21 1008.21 1008.17 1008.13 1008.05 1007.97 1007.85 1007.73 1007.65 1007.61 1007.65 1007.69 1007.73 1007.77 1007.81 1007.81 1007.81 1007.81 1007.81 1007.85 1007.81 1007.81 1007.77 1007.77 1007.77 1007.77 1007.81 1007.85 1007.85 1007.93 1008.01
1013.13 1013.05 1012.89 1012.73 1012.57 1012.45 1012.29 1012.17 1012.01 1011.81 1011.57 1011.37 1011.17 1011.01 1010.85 1010.73 1010.61 1010.53 1010.41 1010.25 1010.01 1009.85 1009.73 1009.61 1009.45 1009.33 1009.21 1009.13 1009.01 1008.85 1008.73 1008.65 1008.49 1008.33 1008.21 1008.09 1007.97 1007.89 1007.85 1007.85 1007.77 1007.73 1007.69 1007.57 1007.41 1007.25 1007.13 1007.09 1007.01 1007.09 1007.17 1007.29 1007.37 1007.41 1007.41 1007.41 1007.45 1007.45 1007.45 1007.45 1007.45 1007.45 1007.45 1007.45 1007.45 1007.45 1007.53 1007.57 1007.65
1013.09 1012.93 1012.73 1012.53 1012.45 1012.29 1012.09 1011.89 1011.73 1011.53 1011.33 1011.13 1010.97 1010.77 1010.61 1010.49 1010.37 1010.29 1010.17 1010.01 1009.77 1009.57 1009.45 1009.37 1009.25 1009.09 1008.93 1008.81 1008.69 1008.57 1008.41 1008.25 1008.09 1008.01 1007.89 1007.81 1007.73 1007.61 1007.53 1007.45 1007.37 1007.33 1007.29 1007.13 1006.97 1006.85 1006.73 1006.65 1006.57 1006.49 1006.57 1006.69 1006.77 1006.85 1006.89 1006.89 1006.93 1007.01 1007.01 1007.05 1007.05 1007.09 1007.09 1007.09 1007.05 1007.09 1007.13 1007.29 1007.37
1012.97 1012.77 1012.57 1012.41 1012.29 1012.05 1011.85 1011.57 1011.45 1011.25 1011.05 1010.85 1010.73 1010.53 1010.37 1010.21 1010.13 1010.01 1009.85 1009.65 1009.49 1009.37 1009.25 1009.09 1008.93 1008.77 1008.65 1008.49 1008.37 1008.21 1008.05 1007.85 1007.77 1007.65 1007.53 1007.45 1007.37 1007.29 1007.17 1007.09 1007.01 1006.93 1006.81 1006.73 1006.57 1006.45 1006.33 1006.25 1006.13 1006.05 1006.01 1006.01 1006.13 1006.21 1006.29 1006.41 1006.45 1006.57 1006.61 1006.69 1006.65 1006.69 1006.73 1006.73 1006.73 1006.77 1006.85 1006.89 1007.01
1012.81 1012.61 1012.45 1012.29 1012.09 1011.81 1011.57 1011.37 1011.17 1010.97 1010.77 1010.61 1010.45 1010.29 1010.17 1010.01 1009.85 1009.73 1009.57 1009.41 1009.29 1009.13 1009.01 1008.77 1008.57 1008.45 1008.37 1008.21 1008.01 1007.85 1007.69 1007.57 1007.45 1007.29 1007.21 1007.09 1007.01 1006.89 1006.81 1006.73 1006.61 1006.49 1006.33 1006.21 1006.13 1006.01 1005.89 1005.81 1005.69 1005.61 1005.57 1005.53 1005.57 1005.57 1005.65 1005.77 1005.89 1006.01 1006.09 1006.17 1006.21 1006.29 1006.29 1006.33 1006.37 1006.45 1006.49 1006.57 1006.69
1012.61 1012.45 1012.29 1012.09 1011.85 1011.57 1011.33 1011.13 1010.89 1010.73 1010.57 1010.41 1010.21 1010.09 1009.97 1009.81 1009.65 1009.49 1009.33 1009.17 1009.01 1008.85 1008.65 1008.49 1008.33 1008.21 1008.05 1007.85 1007.69 1007.49 1007.33 1007.17 1007.05 1006.97 1006.89 1006.81 1006.69 1006.53 1006.41 1006.29 1006.17 1006.05 1005.93 1005.81 1005.73 1005.57 1005.49 1005.37 1005.29 1005.21 1005.13 1005.05 1005.05 1005.09 1005.13 1005.17 1005.29 1005.41 1005.49 1005.57 1005.61 1005.73 1005.81 1005.85 1005.97 1006.01 1006.09 1006.17 1006.29
1012.41 1012.25 1012.05 1011.85 1011.61 1011.37 1011.13 1010.85 1010.69 1010.49 1010.33 1010.17 1010.01 1009.85 1009.73 1009.57 1009.41 1009.21 1009.05 1008.89 1008.69 1008.45 1008.29 1008.21 1008.13 1007.93 1007.73 1007.53 1007.41 1007.21 1007.01 1006.85 1006.73 1006.65 1006.57 1006.45 1006.29 1006.13 1006.01 1005.85 1005.77 1005.65 1005.57 1005.45 1005.33 1005.21 1005.13 1005.01 1004.89 1004.77 1004.69 1004.65 1004.65 1004.65 1004.65 1004.69 1004.73 1004.85 1004.89 1005.01 1005.09 1005.17 1005.29 1005.45 1005.53 1005.57 1005.69 1005.77 1005.89
1012.21 1012.01 1011.85 1011.61 1011.41 1011.13 1010.85 1010.65 1010.45 1010.29 1010.09 1009.93 1009.77 1009.61 1009.45 1009.29 1009.09 1008.89 1008.73 1008.57 1008.41 1008.21 1008.05 1007.97 1007.81 1007.61 1007.37 1007.17 1007.01 1006.85 1006.69 1006.57 1006.41 1006.29 1006.17 1006.09 1005.93 1005.77 1005.61 1005.49 1005.37 1005.29 1005.13 1005.05 1004.97 1004.81 1004.69 1004.57 1004.45 1004.41 1004.33 1004.25 1004.25 1004.25 1004.25 1004.25 1004.29 1004.33 1004.41 1004.49 1004.61 1004.73 1004.85 1004.97 1005.05 1005.13 1005.25 1005.33 1005.45
1011.97 1011.81 1011.61 1011.45 1011.17 1010.85 1010.61 1010.45 1010.21 1010.01 1009.85 1009.65 1009.49 1009.33 1009.13 1008.93 1008.73 1008.57 1008.45 1008.29 1008.17 1008.01 1007.85 1007.65 1007.45 1007.25 1007.01 1006.85 1006.65 1006.45 1006.29 1006.17 1006.01 1005.89 1005.77 1005.65 1005.57 1005.41 1005.29 1005.13 1005.01 1004.89 1004.77 1004.65 1004.49 1004.37 1004.29 1004.17 1004.09 1004.01 1003.93 1003.85 1003.85 1003.85 1003.85 1003.85 1003.89 1003.93 1003.93 1004.01 1004.17 1004.29 1004.45 1004.57 1004.61 1004.69 1004.77 1004.89 1005.01
1011.73 1011.57 1011.41 1011.17 1010.93 1010.61 1010.37 1010.17 1009.93 1009.77 1009.57 1009.37 1009.17 1009.01 1008.85 1008.69 1008.49 1008.29 1008.09 1007.97 1007.81 1007.65 1007.45 1007.29 1007.09 1006.85 1006.69 1006.53 1006.37 1006.17 1005.97 1005.77 1005.69 1005.57 1005.45 1005.33 1005.25 1005.13 1004.93 1004.73 1004.57 1004.45 1004.37 1004.21 1004.09 1003.97 1003.85 1003.73 1003.69 1003.61 1003.57 1003.53 1003.53 1003.49 1003.49 1003.49 1003.53 1003.57 1003.57 1003.57 1003.73 1003.85 1004.01 1004.13 1004.21 1004.29 1004.33 1004.45 1004.57
1011.57 1011.37 1011.17 1010.93 1010.65 1010.41 1010.13 1009.85 1009.69 1009.49 1009.29 1009.13 1008.85 1008.69 1008.53 1008.37 1008.21 1008.01 1007.81 1007.57 1007.45 1007.29 1007.09 1006.85 1006.69 1006.49 1006.33 1006.17 1006.05 1005.89 1005.73 1005.53 1005.37 1005.25 1005.13 1005.09 1004.93 1004.73 1004.57 1004.33 1004.17 1004.01 1003.93 1003.81 1003.69 1003.57 1003.45 1003.33 1003.29 1003.21 1003.17 1003.13 1003.17 1003.17 1003.17 1003.17 1003.17 1003.17 1003.21 1003.25 1003.33 1003.45 1003.57 1003.73 1003.85 1003.89 1003.97 1004.05 1004.17
1011.33 1011.13 1010.93 1010.65 1010.37 1010.13 1009.85 1009.57 1009.41 1009.21 1009.01 1008.85 1008.61 1008.45 1008.25 1008.05 1007.85 1007.69 1007.53 1007.29 1007.13 1006.97 1006.73 1006.53 1006.37 1006.17 1006.01 1005.85 1005.73 1005.57 1005.45 1005.29 1005.13 1004.97 1004.85 1004.73 1004.57 1004.41 1004.17 1003.97 1003.77 1003.65 1003.57 1003.49 1003.33 1003.21 1003.13 1003.01 1002.93 1002.85 1002.85 1002.85 1002.85 1002.89 1002.85 1002.85 1002.85 1002.85 1002.85 1002.93 1003.01 1003.05 1003.13 1003.29 1003.45 1003.49 1003.57 1003.69 1003.77
1011.09 1010.89 1010.69 1010.45 1010.17 1009.89 1009.65 1009.41 1009.21 1009.01 1008.81 1008.57 1008.45 1008.21 1008.01 1007.77 1007.57 1007.37 1007.21 1007.05 1006.89 1006.69 1006.45 1006.25 1006.01 1005.85 1005.73 1005.57 1005.37 1005.17 1005.05 1004.97 1004.85 1004.73 1004.57 1004.41 1004.25 1004.09 1003.85 1003.57 1003.41 1003.29 1003.21 1003.13 1003.01 1002.89 1002.77 1002.73 1002.61 1002.57 1002.53 1002.53 1002.53 1002.53 1002.57 1002.53 1002.57 1002.57 1002.57 1002.61 1002.65 1002.73 1002.77 1002.89 1003.01 1003.05 1003.13 1003.29 1003.37
1010.77 1010.61 1010.41 1010.17 1009.93 1009.69 1009.45 1009.25 1009.01 1008.85 1008.61 1008.37 1008.17 1008.01 1007.81 1007.57 1007.29 1007.13 1006.97 1006.85 1006.69 1006.45 1006.17 1005.89 1005.73 1005.53 1005.33 1005.21 1005.01 1004.85 1004.73 1004.65 1004.57 1004.45 1004.29 1004.09 1003.97 1003.77 1003.57 1003.29 1003.05 1002.93 1002.85 1002.81 1002.73 1002.57 1002.45 1002.37 1002.29 1002.25 1002.21 1002.25 1002.21 1002.21 1002.21 1002.21 1002.21 1002.25 1002.29 1002.29 1002.33 1002.41 1002.45 1002.53 1002.57 1002.61 1002.73 1002.81 1002.89
1010.53 1010.37 1010.17 1010.01 1009.77 1009.57 1009.33 1009.13 1008.93 1008.69 1008.45 1008.21 1007.97 1007.77 1007.57 1007.29 1007.09 1006.85 1006.73 1006.57 1006.41 1006.17 1005.89 1005.61 1005.37 1005.13 1005.01 1004.89 1004.73 1004.53 1004.41 1004.29 1004.25 1004.17 1004.01 1003.81 1003.61 1003.45 1003.25 1003.01 1002.73 1002.57 1002.49 1002.45 1002.37 1002.29 1002.17 1002.05 1001.97 1001.89 1001.85 1001.89 1001.89 1001.89 1001.89 1001.93 1001.93 1001.93 1002.01 1002.01 1002.05 1002.09 1002.13 1002.17 1002.21 1002.21 1002.25 1002.33 1002.37
1010.37 1010.17 1010.01 1009.85 1009.69 1009.45 1009.21 1009.01 1008.73 1008.49 1008.29 1008.09 1007.81 1007.53 1007.29 1007.13 1006.85 1006.57 1006.41 1006.25 1006.09 1005.85 1005.61 1005.37 1005.09 1004.85 1004.73 1004.57 1004.45 1004.29 1004.09 1003.97 1003.85 1003.81 1003.73 1003.53 1003.29 1003.09 1002.89 1002.73 1002.49 1002.29 1002.17 1002.13 1002.05 1001.93 1001.85 1001.73 1001.61 1001.57 1001.57 1001.57 1001.57 1001.61 1001.61 1001.65 1001.65 1001.69 1001.73 1001.73 1001.81 1001.85 1001.85 1001.85 1001.89 1001.89 1001.89 1001.97 1002.01
1010.25 1010.09 1009.89 1009.73 1009.57 1009.33 1009.09 1008.85 1008.57 1008.29 1008.05 1007.85 1007.61 1007.33 1007.09 1006.85 1006.61 1006.37 1006.17 1006.01 1005.81 1005.57 1005.33 1005.09 1004.81 1004.61 1004.45 1004.33 1004.21 1004.01 1003.85 1003.69 1003.57 1003.49 1003.37 1003.21 1003.01 1002.81 1002.61 1002.45 1002.25 1002.05 1001.89 1001.85 1001.81 1001.73 1001.57 1001.45 1001.33 1001.29 1001.25 1001.29 1001.29 1001.33 1001.37 1001.41 1001.41 1001.41 1001.41 1001.45 1001.53 1001.57 1001.57 1001.57 1001.61 1001.57 1001.57 1001.61 1001.73
Wind_Speed
8 8 8 8 7 6 6 6 7 7 6 6 6 6 6 6 7 7 6 6 6 6 7 6 6 7 7 8 9 10 11 12 13 14 15 16 16 16 16 15 15 15 14 14 14 14 13 13 12 11 10 9 10 10 11 10 11 12 13 13 13 13 14 15 16 16 17 17 14
9 9 9 9 8 7 6 6 6 6 6 6 6 6 6 6 6 7 7 6 6 6 6 7 7 7 8 9 9 10 11 12 13 14 15 16 16 16 15 15 15 15 15 15 15 13 12 13 12 11 10 9 10 11 11 11 11 12 14 15 13 12 12 14 15 16 16 16 14
8 8 8 7 7 7 6 6 6 7 7 7 6 6 6 6 6 6 7 7 7 6 6 6 7 7 8 9 9 9 10 11 12 13 14 14 15 16 15 15 15 15 16 15 15 14 13 13 12 11 10 10 11 11 12 12 12 12 13 15 12 11 10 11 13 13 13 12 14
6 6 6 7 8 8 7 7 7 8 8 7 6 6 6 5 6 6 6 7 6 6 7 7 7 8 8 9 9 9 10 11 12 13 13 14 15 15 16 15 15 15 15 15 15 15 15 14 12 11 11 12 12 12 12 11 12 12 12 12 10 10 11 10 11 10 10 11 12
5 5 6 6 8 8 8 6 7 7 7 6 5 5 5 5 6 6 6 6 7 8 9 9 8 8 8 8 9 10 11 12 13 13 13 14 15 15 15 15 16 15 15 15 15 16 15 15 11 10 11 12 11 12 12 12 12 12 10 9 9 10 10 10 10 9 9 9 10
4 5 5 5 6 7 6 6 7 7 6 5 5 6 6 5 5 6 7 7 9 9 10 10 9 9 9 9 9 10 11 11 12 12 13 14 14 14 14 15 16 16 15 15 16 16 15 14 11 10 10 10 11 12 13 14 13 12 11 10 10 10 10 11 9 9 9 10 11
4 4 4 5 5 5 5 5 5 5 5 4 5 7 8 8 7 8 8 9 8 8 8 8 8 9 9 9 9 10 10 11 11 12 13 14 14 14 14 15 15 16 16 16 16 15 14 13 11 10 11 11 10 12 13 13 13 12 12 12 11 10 10 11 9 9 10 13 14
4 4 5 5 4 4 4 4 4 3 3 4 6 7 9 9 9 9 9 8 8 7 7 6 8 9 10 9 10 10 11 11 12 12 13 13 14 15 15 15 15 15 16 16 15 15 14 12 11 11 11 11 10 11 13 13 13 13 14 14 12 10 9 9 8 9 11 13 15
3 4 4 4 4 4 4 4 3 3 4 5 6 7 8 8 8 8 8 7 8 7 7 7 8 9 10 10 10 11 11 11 12 12 13 13 14 15 15 14 15 15 15 15 15 15 14 12 11 11 11 11 11 11 12 13 14 15 15 14 13 11 11 10 11 11 12 13 15
3 3 3 3 3 3 3 3 3 3 4 6 7 8 8 8 8 8 7 7 7 7 7 7 8 9 9 10 11 11 11 11 11 12 12 13 14 15 15 14 14 15 15 14 14 14 14 12 12 13 13 12 13 13 13 13 14 15 15 13 13 13 14 13 13 13 14 14 15
4 4 3 3 4 3 3 3 3 3 4 6 7 8 8 8 8 7 7 6 6 7 8 9 9 9 9 10 10 11 11 10 10 11 12 13 14 14 15 14 14 15 15 14 13 12 12 12 13 15 15 15 14 14 14 13 14 15 15 14 14 15 15 16 15 14 14 14 15
4 4 4 3 3 3 3 3 3 4 5 6 7 7 7 7 8 7 6 6 7 8 9 8 9 9 10 9 10 10 10 10 11 11 12 13 14 14 15 14 14 15 15 15 13 11 11 12 14 16 17 17 14 13 13 14 14 15 16 16 15 15 16 17 16 15 13 14 15
4 4 4 3 3 3 3 3 4 4 5 7 7 7 7 8 7 7 6 7 8 8 8 8 8 8 9 9 10 10 10 10 10 11 12 12 13 14 14 14 14 15 15 14 13 12 11 13 14 16 17 18 15 14 14 15 15 16 16 17 16 17 17 18 17 15 14 15 15
3 4 4 3 3 3 3 4 4 5 6 7 8 7 7 8 7 6 6 7 8 9 8 8 8 8 8 9 10 10 10 10 11 11 12 13 13 13 14 14 14 14 14 13 12 13 13 14 15 16 17 18 17 16 16 15 15 16 17 17 18 18 18 18 17 16 16 16 17
3 4 3 3 3 3 3 4 5 5 6 7 8 7 7 7 7 7 6 7 8 8 8 7 8 8 9 9 10 10 10 10 11 12 12 13 14 14 14 14 14 14 13 13 13 13 14 15 16 16 17 17 18 17 17 16 16 16 17 17 18 19 18 18 17 16 16 17 17
4 4 3 3 3 3 4 5 5 5 6 7 8 7 7 7 7 7 7 8 8 8 8 8 9 9 9 9 9 9 10 10 11 11 12 13 14 14 14 14 14 14 14 14 13 14 14 15 16 16 17 17 17 17 17 17 17 17 18 18 18 18 18 18 17 17 17 18 18
4 4 4 3 4 5 5 6 5 5 6 8 8 8 8 8 8 8 8 9 8 8 9 10 9 9 9 9 9 8 8 9 10 11 12 13 13 14 14 14 14 14 14 14 14 15 15 15 15 15 16 17 17 17 17 17 17 17 18 18 18 18 18 18 17 17 17 18 19
5 5 4 4 5 6 7 7 7 7 8 9 9 9 9 9 9 9 10 10 9 10 11 11 10 10 9 10 9 8 8 9 10 11 12 13 13 13 14 14 14 14 14 14 15 15 16 16 16 15 15 16 16 16 16 16 16 17 18 18 18 18 18 18 18 17 17 18 19
6 6 6 6 7 7 8 8 8 8 8 9 9 10 10 11 10 11 11 11 11 11 11 12 11 11 10 11 10 9 8 9 11 12 13 13 13 13 13 14 14 14 14 14 15 15 16 16 16 15 15 16 16 16 16 16 16 17 17 18 18 18 18 18 18 17 17 18 19
7 7 7 7 7 8 8 8 8 8 8 9 10 11 12 12 12 12 12 13 12 12 11 11 12 11 11 11 11 10 9 9 11 12 13 12 12 13 13 14 14 14 14 14 14 14 15 15 15 15 16 16 16 16 16 16 16 16 17 17 17 18 18 18 18 18 18 18 18
8 8 8 8 7 7 8 8 8 8 9 10 11 12 13 13 13 13 13 14 13 12 12 12 12 12 12 12 12 12 11 10 10 11 12 12 12 13 13 13 13 13 13 13 13 14 14 15 15 15 15 15 16 16 16 16 16 16 16 16 16 17 18 18 18 18 18 19 19
9 9 8 7 7 8 8 8 8 9 10 11 12 13 13 13 14 14 14 13 12 12 12 12 12 13 12 12 12 12 11 10 10 11 11 11 12 12 12 12 12 13 13 13 13 14 14 15 15 15 15 15 15 16 16 16 16 16 16 17 17 17 17 17 18 18 18 19 19
9 9 8 7 7 8 8 9 9 10 11 12 13 13 13 14 14 14 13 12 12 12 13 12 12 12 12 12 12 12 12 11 11 12 11 11 12 12 12 11 12 12 13 13 13 13 13 13 14 14 14 14 15 15 16 16 16 16 16 17 17 17 17 17 17 17 18 18 18
9 8 7 6 6 7 8 8 9 10 12 13 14 14 14 14 14 14 13 13 13 13 13 12 11 11 12 11 11 11 11 12 13 13 13 12 12 12 12 11 11 12 12 11 12 13 13 12 12 12 12 13 13 14 14 15 15 15 15 16 16 16 16 16 17 17 17 18 17
9 8 7 7 7 8 9 9 11 12 13 14 14 14 14 14 14 13 13 13 13 13 13 13 12 11 11 11 11 11 11 11 13 13 14 14 13 12 11 10 10 10 10 11 16 20 21 18 15 12 11 11 12 13 13 14 14 15 15 15 16 16 16 16 17 18 18 18 17
8 8 8 9 9 9 10 11 12 13 14 14 14 14 14 14 13 13 13 13 14 14 13 12 12 11 11 11 11 11 11 11 11 12 13 13 13 13 12 10 10 9 9 12 18 23 25 26 23 19 14 11 11 11 12 13 14 15 15 15 15 15 15 16 17 17 17 17 16
8 9 10 10 10 11 12 13 13 14 15 15 15 15 14 14 13 12 13 14 14 13 12 11 11 11 11 10 11 11 12 11 11 12 12 13 13 13 13 11 10 9 10 15 20 24 26 27 28 26 21 14 12 11 12 12 13 14 14 15 15 15 16 16 17 17 17 16 16
10 10 11 11 12 13 14 14 14 15 15 15 15 15 14 14 13 13 13 14 13 12 11 10 10 9 8 8 9 11 12 12 11 11 11 12 13 13 13 12 11 11 13 18 22 25 26 27 27 27 26 20 14 12 12 12 13 13 13 13 14 15 16 16 16 15 15 16 15
11 12 12 13 14 15 15 16 16 16 16 15 15 14 14 14 14 14 14 14 13 12 11 10 9 7 7 8 10 11 12 12 11 11 11 12 12 13 13 13 12 14 17 22 25 26 27 27 27 28 27 25 17 12 10 11 11 12 12 12 13 14 14 15 14 14 15 15 15
12 13 14 15 15 16 16 16 16 16 16 15 14 14 14 14 14 14 14 14 14 13 12 10 9 9 10 11 11 11 12 11 11 10 11 12 13 13 14 14 13 14 17 22 25 26 27 27 28 28 28 28 22 15 10 10 10 11 12 12 13 14 15 15 16 16 15 14 15
13 14 14 15 16 16 17 17 16 16 15 14 14 14 14 14 15 15 14 13 13 13 12 10 11 13 13 13 12 12 12 12 11 11 11 12 13 14 14 14 14 15 17 22 25 26 27 28 28 28 28 28 23 16 12 10 11 11 11 12 13 14 15 15 15 16 16 16 16
14 14 14 15 16 16 17 16 16 16 15 15 15 15 15 15 14 14 13 11 11 12 13 11 13 14 14 13 12 12 12 12 12 11 11 12 13 14 14 15 14 15 18 22 25 26 27 28 28 28 28 28 23 18 13 12 12 11 11 12 14 15 15 14 14 15 17 17 17
14 14 14 15 16 16 17 16 16 16 15 15 15 15 15 15 14 13 12 11 10 11 11 12 13 14 14 13 12 13 13 13 12 13 13 13 13 14 14 14 13 14 17 22 25 26 27 28 28 28 28 28 23 17 14 13 12 11 11 12 13 14 15 16 15 16 16 17 17
14 14 14 15 16 16 16 16 16 16 15 15 15 15 14 14 14 13 12 10 10 10 10 10 11 11 11 11 12 13 13 13 12 12 13 13 13 14 14 14 12 13 18 22 25 26 27 27 28 28 28 28 21 16 13 13 12 12 12 12 12 13 14 15 16 17 17 17 16
13 14 14 15 15 16 16 16 16 16 15 15 15 15 14 13 13 13 12 11 10 10 10 10 10 10 11 11 11 12 13 13 13 13 13 13 13 14 15 15 14 16 20 23 25 26 27 28 28 28 27 25 18 14 12 13 12 13 13 13 13 13 13 14 15 16 16 17 16
13 14 14 15 15 16 16 16 16 15 15 15 15 15 14 13 11 10 10 10 10 10 10 11 10 10 10 11 11 11 12 13 13 13 13 13 14 15 16 16 16 17 20 23 25 26 27 27 27 28 26 22 15 11 10 10 11 12 13 14 13 13 13 13 14 14 15 15 16
13 13 14 15 15 15 16 15 15 15 15 15 14 14 13 12 11 10 9 8 10 10 11 11 11 11 11 10 11 11 12 12 12 13 13 14 14 15 16 17 16 17 19 21 24 25 26 26 27 27 24 18 13 10 10 9 9 10 11 13 13 13 13 12 12 13 14 15 16
13 13 14 14 15 15 15 15 15 15 15 15 13 12 11 10 9 9 9 8 10 11 12 11 12 12 11 11 12 12 12 11 12 13 14 14 15 16 17 18 17 16 17 19 22 24 25 25 26 26 23 17 13 11 9 8 8 9 10 10 11 12 12 11 10 11 12 15 17
13 13 13 14 14 14 15 15 15 15 15 15 14 13 12 11 9 9 9 9 10 10 11 12 13 13 12 12 12 12 12 12 12 12 13 14 15 16 18 18 18 17 16 18 21 23 24 25 25 25 23 18 14 11 9 8 8 9 9 9 9 10 11 10 10 10 11 14 19
13 13 13 13 13 14 14 15 15 15 15 14 15 14 13 12 11 12 12 10 10 11 12 13 13 13 13 13 13 13 13 12 12 12 13 15 16 18 19 19 18 17 17 18 21 23 24 25 25 25 23 18 13 10 8 8 8 9 9 8 8 9 9 10 10 9 10 11 16
12 12 12 13 13 13 14 15 15 15 15 15 15 14 13 12 12 12 12 12 12 12 12 12 13 13 13 13 13 13 13 14 13 13 14 15 16 18 18 18 17 16 16 17 19 22 24 24 25 25 23 17 12 9 8 7 8 9 9 9 8 8 8 9 9 9 9 10 11
Wind_Direction
233 233 233 233 234 235 238 241 242 242 243 243 245 244 243 240 244 246 247 243 244 246 247 247 245 245 243 235 228 226 227 228 229 230 231 232 232 232 231 231 229 229 228 228 226 225 224 222 222 224 226 225 226 226 226 225 224 225 226 226 228 228 228 229 231 230 230 229 230
234 235 236 238 240 240 242 245 246 246 245 243 243 244 244 242 245 248 249 247 245 247 249 252 250 248 245 240 232 229 229 231 231 231 233 234 234 234 233 232 231 229 228 228 226 225 224 222 221 222 225 226 226 227 227 224 222 224 226 227 228 228 228 230 231 231 230 230 230
237 238 239 240 242 243 244 247 248 247 247 247 246 245 245 244 246 249 251 250 249 249 251 254 252 249 246 243 238 234 232 233 232 233 234 236 237 236 235 234 233 231 230 228 226 225 224 222 220 222 224 225 224 226 226 225 221 223 226 227 227 228 229 231 231 230 229 229 229
244 244 244 243 242 242 243 246 248 249 249 249 248 247 246 245 246 249 252 255 256 254 251 251 252 251 248 245 241 238 236 235 234 235 236 238 238 237 236 235 234 233 231 229 228 227 226 223 222 223 225 225 225 226 226 224 221 222 224 225 225 226 228 232 231 229 227 228 227
253 247 244 243 242 242 243 245 248 251 252 252 252 251 249 247 247 250 253 256 255 252 249 247 250 251 249 245 242 240 239 238 237 238 238 239 239 238 237 236 235 234 233 230 229 228 227 224 225 226 227 226 225 226 226 224 222 222 223 224 223 224 227 231 231 230 229 229 227
257 252 247 244 242 244 246 247 247 249 252 255 255 255 254 251 248 247 248 250 252 252 252 250 251 252 250 246 242 241 241 241 239 239 240 241 241 240 239 237 236 235 234 233 231 229 227 224 227 228 228 228 229 230 228 225 224 224 224 225 223 222 223 226 228 229 230 232 231
254 255 254 249 244 243 246 248 248 250 252 255 253 252 253 253 251 248 248 250 255 257 257 255 252 251 249 246 243 242 242 242 241 240 240 242 243 242 240 238 237 237 236 234 232 230 227 224 227 229 230 229 231 230 228 224 224 224 225 226 224 222 222 224 224 226 229 232 231
252 252 251 251 246 244 245 248 250 252 254 253 249 250 251 253 254 253 254 256 259 260 260 260 254 251 249 246 245 244 243 242 242 241 240 241 243 243 242 241 239 238 237 235 233 231 228 224 226 228 230 229 231 230 227 222 222 223 225 226 226 223 221 221 221 223 225 229 230
259 255 251 251 248 246 248 251 251 253 256 257 255 254 254 256 257 258 259 261 261 260 261 262 258 255 251 248 247 247 245 244 243 243 242 241 242 243 243 242 241 239 238 235 233 231 228 226 227 228 229 229 231 230 226 219 219 221 224 226 227 225 222 221 219 220 222 225 228
267 266 266 269 267 265 266 271 265 259 259 263 263 262 262 264 263 261 260 260 264 265 265 264 262 260 257 252 251 249 248 247 245 244 244 243 242 242 243 242 240 239 239 236 233 230 228 228 229 229 229 229 230 231 228 221 219 220 223 225 225 225 224 222 219 219 221 223 225
267 270 275 280 283 287 294 296 286 276 270 269 269 270 269 269 266 263 262 264 268 268 266 265 264 263 261 258 255 253 251 249 247 245 245 244 243 243 242 242 240 239 239 237 233 230 228 228 230 231 231 231 230 231 229 224 221 222 223 225 224 225 225 224 220 220 220 222 224
265 271 275 277 284 292 298 294 288 282 278 274 273 272 271 269 265 264 265 268 266 265 265 265 263 262 261 261 259 257 254 251 249 247 246 246 245 244 244 243 241 240 240 238 234 230 228 228 230 231 232 232 231 230 228 226 223 224 225 226 225 225 225 225 222 220 219 220 223
265 272 277 279 284 289 290 285 281 279 278 276 274 273 272 270 266 265 265 265 263 264 266 267 263 260 260 260 260 259 257 254 250 248 248 247 246 246 245 244 243 242 241 240 235 232 230 229 229 230 231 232 231 230 228 225 224 224 225 226 225 225 226 225 222 220 219 219 222
266 270 273 276 281 282 279 277 277 277 277 277 275 274 273 274 272 268 265 262 262 264 267 269 266 262 259 258 259 258 257 256 254 252 250 249 248 247 246 245 243 242 241 241 236 233 231 231 230 230 231 232 232 231 229 226 225 225 225 225 225 226 226 226 223 221 219 219 222
270 268 267 270 273 272 271 272 273 275 277 278 277 276 277 278 276 273 268 265 264 265 267 269 268 266 262 259 259 258 258 258 256 255 254 253 251 249 247 246 244 242 241 240 237 234 232 232 232 232 232 233 233 232 230 228 227 226 226 226 226 226 226 226 223 221 219 219 221
268 267 265 264 266 267 269 269 272 275 278 279 280 280 281 281 280 277 274 270 269 268 268 266 267 268 268 265 261 259 259 259 257 256 255 254 253 251 249 247 245 243 241 240 238 236 234 233 233 233 233 234 234 233 232 230 229 229 228 227 227 227 227 226 223 222 220 220 221
267 266 264 262 265 267 270 272 275 278 279 281 283 283 283 281 282 280 277 273 273 273 271 269 269 270 272 271 267 264 261 261 258 256 255 254 252 251 249 248 246 244 242 240 239 238 237 235 235 234 234 235 235 234 233 232 231 230 230 229 228 228 227 226 224 222 221 221 222
268 267 267 265 266 268 271 274 277 279 281 282 284 284 283 281 281 280 278 275 273 272 272 272 272 272 272 272 270 268 264 263 260 257 255 254 252 251 250 249 248 246 243 241 240 239 238 237 236 236 235 236 236 236 235 233 233 232 231 230 229 229 228 226 224 222 222 222 223
269 269 269 268 267 268 270 273 276 279 281 283 284 285 284 282 280 279 278 276 272 270 269 272 273 272 270 269 269 267 265 262 261 260 258 256 255 253 252 251 250 247 245 242 241 240 240 239 237 236 236 237 237 237 236 234 234 233 232 231 230 229 228 227 225 224 222 222 223
266 267 266 265 266 267 269 272 275 278 281 284 285 285 284 282 280 278 276 274 273 271 269 269 271 272 271 270 269 267 265 263 262 261 260 258 257 255 253 252 251 249 247 244 243 242 241 241 239 237 236 236 237 237 236 235 234 234 233 232 231 230 229 228 227 225 224 223 223
262 262 261 260 261 263 265 269 273 277 281 284 284 283 282 281 279 276 273 272 273 272 271 268 269 269 270 271 270 268 267 265 263 262 261 260 258 255 254 252 252 251 249 245 244 243 242 242 240 239 237 236 236 236 235 235 235 234 233 233 233 232 231 230 228 227 226 225 224
261 259 257 257 257 259 263 268 273 277 281 282 282 281 280 280 277 274 272 272 272 271 269 267 267 267 267 268 268 269 269 269 266 264 262 261 259 257 255 253 252 252 250 248 246 244 243 243 241 240 238 237 236 235 235 235 235 235 235 234 234 234 233 231 230 228 227 226 225
263 261 259 258 258 262 266 271 276 280 282 282 282 281 280 278 276 275 274 274 272 270 268 267 267 266 266 266 267 269 271 273 271 269 266 263 262 260 257 254 252 251 250 248 247 245 244 245 243 241 239 238 237 237 236 236 236 236 236 236 236 236 234 233 231 230 229 228 227
267 267 266 266 266 268 271 276 280 282 283 283 282 281 280 278 277 277 276 275 272 270 268 268 268 268 269 269 269 269 269 271 272 272 270 266 264 262 259 256 253 250 249 248 246 244 243 243 242 241 239 238 238 238 237 237 237 237 238 238 238 237 236 235 233 231 230 229 228
275 275 274 273 273 274 277 280 281 282 283 283 283 282 281 280 279 279 278 276 273 271 270 269 270 271 271 272 270 268 266 265 267 269 270 270 266 263 260 257 253 250 248 248 249 248 248 246 243 239 236 235 237 238 238 237 236 236 237 237 238 238 238 237 235 233 232 231 228
283 281 279 275 276 279 281 281 282 283 283 284 284 283 282 281 280 279 277 275 274 272 272 272 272 272 272 272 271 270 267 265 265 266 268 269 269 266 263 259 255 252 249 248 250 251 252 252 251 247 242 233 232 233 236 236 235 234 235 236 236 237 238 238 237 235 233 232 229
286 283 281 280 282 283 283 283 284 284 284 285 284 283 282 281 280 278 276 275 274 274 274 273 272 272 273 272 271 270 269 268 268 267 266 266 267 267 265 262 258 254 251 250 252 254 255 256 256 255 251 241 231 227 228 232 231 232 232 234 235 236 237 238 238 237 235 233 231
283 283 284 286 286 286 285 286 286 286 286 285 285 284 283 282 281 279 277 276 276 277 277 275 272 271 271 270 269 268 268 269 269 268 267 266 265 265 264 263 261 257 255 254 256 257 258 259 259 259 257 253 243 230 224 226 228 229 230 232 234 235 236 237 238 238 237 235 233
281 284 286 288 287 287 288 289 288 288 288 287 286 285 284 283 281 279 278 278 278 277 277 276 275 273 271 270 271 271 271 271 270 269 269 268 267 265 264 263 262 260 260 260 260 261 261 261 261 261 260 259 254 243 229 224 224 226 228 230 231 232 233 235 237 237 237 237 235
284 287 288 289 289 290 291 291 290 290 290 290 289 287 286 284 282 281 279 279 278 276 274 275 276 274 273 272 274 276 276 274 272 270 269 268 267 266 265 263 262 261 262 262 263 264 264 264 264 263 262 261 259 254 244 230 226 225 226 228 228 229 230 232 234 235 235 235 235
288 289 291 291 292 292 292 292 292 292 291 291 289 287 286 284 282 280 279 278 277 276 275 274 273 272 272 272 274 275 275 275 274 271 269 268 268 268 267 266 264 263 263 264 265 266 266 266 265 265 264 263 261 257 250 242 234 229 226 226 226 226 227 229 230 232 232 233 233
290 291 292 292 292 292 292 292 292 292 291 290 288 286 284 282 280 279 278 277 277 277 277 275 273 273 274 275 275 275 274 274 273 271 269 267 268 269 269 269 267 265 265 266 267 267 267 267 267 266 265 264 262 259 253 248 243 238 232 227 225 224 224 226 228 229 230 230 230
290 291 291 291 291 292 292 292 292 291 290 289 287 285 283 281 280 279 279 277 276 274 273 272 272 273 276 278 279 279 277 276 274 273 272 271 271 271 272 272 270 268 267 268 268 268 268 268 267 267 266 265 263 260 255 250 248 244 239 232 227 224 223 225 227 228 228 228 227
291 291 291 290 290 290 291 291 291 290 290 288 286 284 282 281 281 280 279 276 274 271 270 269 271 273 275 277 278 279 279 278 277 276 275 275 275 275 275 275 273 271 270 270 270 270 270 269 269 268 266 265 263 260 255 251 250 248 245 240 233 226 223 224 226 228 228 227 226
290 290 289 289 289 290 290 291 291 290 290 288 287 285 284 281 280 278 277 276 275 274 273 273 274 275 277 277 276 276 276 277 277 276 276 276 277 278 278 277 275 274 273 273 273 273 273 272 271 269 268 266 263 259 254 251 250 248 247 245 239 232 226 224 226 227 228 227 226
288 288 288 288 289 290 291 291 292 292 291 290 289 288 287 284 281 278 276 277 277 278 278 279 279 279 279 278 276 274 273 273 274 275 276 277 279 280 280 279 278 276 276 276 276 275 275 274 273 271 269 267 263 257 252 249 248 247 246 245 243 239 232 227 226 226 226 226 225
288 288 288 289 291 292 293 294 295 295 294 293 291 290 289 287 284 282 280 280 282 282 281 282 282 281 279 277 275 273 272 271 274 276 278 279 281 282 282 283 281 279 278 278 278 277 276 275 274 273 271 268 262 256 251 247 246 244 244 244 244 241 238 233 229 227 226 224 223
292 292 293 294 295 296 297 298 298 297 296 295 293 292 290 288 287 285 284 284 283 283 284 284 282 280 278 276 275 274 273 272 273 276 278 280 281 283 284 284 283 282 280 280 279 278 278 276 275 273 271 267 262 256 251 247 244 243 242 242 243 242 240 238 234 230 227 224 223
299 299 299 299 299 299 300 300 299 298 297 296 295 294 293 291 290 288 287 286 284 283 283 284 282 281 280 279 279 278 277 274 274 276 278 281 282 283 284 285 285 284 283 282 281 280 279 278 276 274 271 267 262 257 251 247 244 242 242 241 243 242 241 240 238 235 231 226 225
304 303 303 302 301 301 301 300 299 298 297 297 296 295 294 293 292 291 290 288 286 284 283 283 282 281 281 282 282 282 281 281 279 279 280 281 283 284 285 286 286 286 285 284 284 283 282 280 278 276 273 269 263 257 251 247 245 243 242 240 241 242 242 241 240 239 235 231 228
306 306 305 303 302 302 301 300 299 298 297 296 295 294 294 294 293 293 292 291 288 286 284 284 284 283 283 284 284 285 285 286 285 284 284 284 285 286 287 287 287 286 286 285 285 284 283 282 280 278 275 271 264 257 250 246 245 243 242 240 240 241 243 243 242 241 239 235 231